Location: Pensacola
(30.4142°N, 87.2155°W)
Time: 15:30:47
(UTC-05:00)

UNISAT 6 - Visible Passes

Search period start: 04 June 2023 00:00
Search period end: 14 June 2023 00:00
Orbit: 599 x 680 km, 97.7° (Epoch: 04 June)

Date Brightness Start Highest point End Pass type
(mag) Time Alt. Az. Time Alt. Az. Time Alt. Az.
04 Jun ? 04:26:52 10° E 04:28:25 12° ENE 04:29:58 10° NE visible
05 Jun ? 04:48:11 10° ESE 04:51:32 22° ENE 04:54:51 10° NNE visible
06 Jun ? 05:10:38 10° SE 05:14:43 41° ENE 05:18:45 10° N visible
08 Jun ? 04:24:13 10° E 04:25:10 11° ENE 04:26:07 10° NE visible
09 Jun ? 04:45:06 10° ESE 04:48:15 20° ENE 04:51:23 10° NNE visible
10 Jun ? 05:07:25 10° SE 05:11:24 38° ENE 05:15:20 10° N visible
13 Jun ? 04:41:56 10° ESE 04:44:53 19° ENE 04:47:50 10° NNE visible
